Weather WX

World > North America > United States > Ohio

Risingsun, Ohio Regional Weather

Lat: 41.27N, Lon: 83.43W
Wx Zone: OHZ006
Feedback

Risingsun, OH Regional Weather

Expires:201906251200;;050444
ASUS41 KCLE 251112
RWRCLE
OHIO REGIONAL WEATHER ROUNDUP
NATIONAL WEATHER SERVICE WILMINGTON, OH
700 AM EDT TUE JUN 25 2019

NOTE: "FAIR" INDICATES FEW OR NO CLOUDS BELOW 12,000 FEET WITH NO
SIGNIFICANT WEATHER AND/OR OBSTRUCTIONS TO VISIBILITY.


OHZ001>008-015>018-024>027-034-035-043-044-251200-
   NORTHWEST OHIO
  
CITY           SKY/WX    TMP DP  RH WIND       PRES   REMARKS
DEFIANCE       FAIR      66  60  81 SW7       29.85R                  
FINDLAY        FAIR      67  61  81 SW10      29.86R                  
TOLEDO EXPRESS FAIR      67  59  75 W13       29.83R                  
TOLEDO EXEC    FAIR      65  62  90 SW10      29.84R                  
LIMA           FAIR      66  60  81 SW9       29.89R                  
$$
 

SKY/WX - Weather  TMP - Temperature  DP - Dew Point  RH - Relative Humidity
WIND - Wind Direction/Speed PRES - Barometric Pressure VSB - Visibility
WCI - Wind Chill Index E13G22 Wind - East Wind 13 mph/Gusts of 22 mph